Location: Harrison
(47.4490°N, 116.7734°W)
Time: 15:35:30
(UTC+00:00)

MOZHAYETS 4 - Visible Passes

Search period start: 08 September 2024 00:00
Search period end: 18 September 2024 00:00
Orbit: 651 x 668 km, 98.3° (Epoch: 08 September)

Date Brightness Start Highest point End Pass type
(mag) Time Alt. Az. Time Alt. Az. Time Alt. Az.
08 Sep 8.9 10:38:45 10° SE 10:43:00 41° ENE 10:47:17 10° N visible
08 Sep 8.8 12:16:21 10° SSW 12:20:02 24° W 12:23:44 10° NW visible
09 Sep 10.8 09:34:45 10° ENE 09:36:14 11° NE 09:37:42 10° NE visible
09 Sep 7.8 11:07:46 10° SSE 11:12:19 78° ENE 11:16:53 10° NNW visible
09 Sep 9.5 12:47:43 10° WSW 12:49:45 13° W 12:51:46 10° WNW visible
10 Sep 10.2 10:01:59 10° ESE 10:05:15 20° ENE 10:08:31 10° NNE visible
10 Sep 7.7 11:37:16 10° S 11:41:44 55° W 11:46:12 10° NNW visible
11 Sep 9.3 10:30:16 10° SE 10:34:22 34° ENE 10:38:28 10° N visible
11 Sep 8.5 12:07:18 10° SSW 12:11:15 29° W 12:15:13 10° NW visible
12 Sep 8.1 10:59:07 10° SSE 11:03:36 64° ENE 11:08:06 10° N visible
12 Sep 9.2 12:38:10 10° SW 12:40:54 16° W 12:43:37 10° NW visible
13 Sep 10.4 09:53:43 10° E 09:56:35 17° ENE 09:59:26 10° NNE visible
13 Sep 7.6 11:28:25 10° S 11:32:57 67° WSW 11:37:29 10° NNW visible
14 Sep 9.6 10:21:45 10° SE 10:25:38 29° ENE 10:29:31 10° N visible
14 Sep 8.2 11:58:14 10° SSW 12:02:23 35° W 12:06:33 10° NNW visible
15 Sep 8.4 10:50:24 10° SE 10:54:48 52° ENE 10:59:12 10° N visible
15 Sep 9.0 12:28:44 10° SW 12:31:57 19° W 12:35:11 10° NW visible
16 Sep 10.6 09:45:30 10° E 09:47:50 14° ENE 09:50:10 10° NNE visible
16 Sep 7.5 11:19:53 12° SSE 11:24:04 83° WSW 11:28:37 10° NNW visible
17 Sep 9.9 10:13:12 10° ESE 10:16:49 24° ENE 10:20:26 10° N visible
17 Sep 8.0 11:49:47 14° SSW 11:53:27 43° W 11:57:46 10° NNW visible
